Time,TemperatureF,DewpointF,PressureIn,WindDirection,WindDirectionDegrees,WindSpeedMPH,WindSpeedGustMPH,Humidity,HourlyPrecipIn,Conditions,Clouds,dailyrainin,SoftwareType,DateUTC
2013-10-04 00:32:00,67.3,63.6,30.06,SSW,193,1.2,0.0,88,0.00,CLR,,0.00,WeatherDisplay:10.37,2013-10-04 04:32:00,
2013-10-04 00:34:00,67.3,63.6,30.06,SSW,193,0.0,0.0,88,0.00,CLR,,0.00,WeatherDisplay:10.37,2013-10-04 04:34:00,
2013-10-04 00:35:00,67.3,63.6,30.06,SSW,193,0.0,0.0,88,0.00,CLR,,0.00,WeatherDisplay:10.37,2013-10-04 04:35:00,
2013-10-04 00:36:00,67.3,63.6,30.06,SSW,193,0.0,0.0,88,0.00,CLR,,0.00,WeatherDisplay:10.37,2013-10-04 04:36:00,
2013-10-04 00:44:00,67.1,63.4,30.06,SSW,193,0.0,0.0,88,0.00,CLR,,0.00,WeatherDisplay:10.37,2013-10-04 04:44:00,
2013-10-04 00:46:00,67.1,63.4,30.06,SSW,193,0.0,0.0,88,0.00,CLR,,0.00,WeatherDisplay:10.37,2013-10-04 04:46:00,
2013-10-04 00:47:00,67.1,63.4,30.06,SSW,193,0.0,0.0,88,0.00,CLR,,0.00,WeatherDisplay:10.37,2013-10-04 04:47:00,
2013-10-04 00:48:00,67.1,63.4,30.06,SSW,193,0.0,0.0,88,0.00,CLR,,0.00,WeatherDisplay:10.37,2013-10-04 04:48:00,
2013-10-04 00:53:00,67.0,63.6,30.06,SSW,193,0.0,0.0,89,0.00,CLR,,0.00,WeatherDisplay:10.37,2013-10-04 04:53:00,
2013-10-04 00:55:00,67.0,63.6,30.06,SSW,193,0.0,0.0,89,0.00,CLR,,0.00,WeatherDisplay:10.37,2013-10-04 04:55:00,
2013-10-04 01:00:00,66.9,63.6,30.07,SSW,193,0.0,0.0,89,0.00,CLR,,0.00,WeatherDisplay:10.37,2013-10-04 05:00:00,
2013-10-04 01:01:00,66.9,63.6,30.07,SSW,193,0.0,0.0,89,0.00,CLR,,0.00,WeatherDisplay:10.37,2013-10-04 05:01:00,
2013-10-04 01:04:00,66.9,63.6,30.06,SSW,193,0.0,0.0,89,0.00,CLR,,0.00,WeatherDisplay:10.37,2013-10-04 05:04:00,
2013-10-04 01:06:00,67.0,63.6,30.06,SSW,193,0.0,0.0,89,0.00,CLR,,0.00,WeatherDisplay:10.37,2013-10-04 05:06:00,
2013-10-04 01:11:00,67.0,63.6,30.06,SSW,193,0.0,0.0,89,0.00,CLR,,0.00,WeatherDisplay:10.37,2013-10-04 05:11:00,
2013-10-04 01:17:00,66.9,63.6,30.06,SSW,193,0.0,0.0,89,0.00,CLR,,0.00,WeatherDisplay:10.37,2013-10-04 05:17:00,
2013-10-04 01:18:00,66.9,63.6,30.06,SSW,193,0.0,0.0,89,0.00,CLR,,0.00,WeatherDisplay:10.37,2013-10-04 05:18:00,
2013-10-04 01:19:00,66.9,63.6,30.06,SSW,193,0.0,0.0,89,0.00,CLR,,0.00,WeatherDisplay:10.37,2013-10-04 05:19:00,
2013-10-04 01:25:00,66.8,63.5,30.06,SSW,193,0.0,0.0,89,0.00,CLR,,0.00,WeatherDisplay:10.37,2013-10-04 05:25:00,
2013-10-04 01:30:00,66.8,63.5,30.05,SSW,193,1.2,0.0,89,0.00,CLR,,0.00,WeatherDisplay:10.37,2013-10-04 05:30:00,
2013-10-04 01:35:00,66.8,63.5,30.05,SSW,193,0.0,0.0,89,0.00,CLR,,0.00,WeatherDisplay:10.37,2013-10-04 05:35:00,
2013-10-04 01:36:00,66.8,63.5,30.05,SSW,193,0.0,0.0,89,0.00,CLR,,0.00,WeatherDisplay:10.37,2013-10-04 05:36:00,
2013-10-04 01:41:00,66.8,63.8,30.05,SSW,193,1.2,1.2,90,0.00,CLR,,0.00,WeatherDisplay:10.37,2013-10-04 05:41:00,
2013-10-04 01:46:00,66.8,63.5,30.05,SSW,193,2.3,2.3,89,0.00,CLR,,0.00,WeatherDisplay:10.37,2013-10-04 05:46:00,
2013-10-04 01:51:00,66.7,63.4,30.06,SSW,193,1.2,0.0,89,0.00,CLR,,0.00,WeatherDisplay:10.37,2013-10-04 05:51:00,
2013-10-04 01:56:00,66.7,63.7,30.06,SSW,193,0.0,0.0,90,0.00,CLR,,0.00,WeatherDisplay:10.37,2013-10-04 05:56:00,
2013-10-04 02:01:00,66.7,63.7,30.06,SSW,193,0.0,0.0,90,0.00,CLR,,0.00,WeatherDisplay:10.37,2013-10-04 06:01:00,
2013-10-04 02:06:00,66.7,63.7,30.06,SSW,193,1.2,1.2,90,0.00,CLR,,0.00,WeatherDisplay:10.37,2013-10-04 06:06:00,
2013-10-04 02:11:00,66.6,63.6,30.06,SSW,193,0.0,0.0,90,0.00,CLR,,0.00,WeatherDisplay:10.37,2013-10-04 06:11:00,
2013-10-04 02:16:00,66.5,63.5,30.06,SSW,193,0.0,0.0,90,0.00,CLR,,0.00,WeatherDisplay:10.37,2013-10-04 06:16:00,
2013-10-04 02:21:00,66.5,63.5,30.06,SSW,193,2.0,2.0,90,0.00,CLR,,0.00,WeatherDisplay:10.37,2013-10-04 06:21:00,
2013-10-04 02:26:00,66.4,63.4,30.06,SSW,193,2.3,2.3,90,0.00,CLR,,0.00,WeatherDisplay:10.37,2013-10-04 06:26:00,
2013-10-04 02:31:00,66.4,63.4,30.05,SSW,193,1.2,0.0,90,0.00,CLR,,0.00,WeatherDisplay:10.37,2013-10-04 06:31:00,
2013-10-04 02:36:00,66.3,63.3,30.05,SSW,193,0.0,0.0,90,0.00,CLR,,0.00,WeatherDisplay:10.37,2013-10-04 06:36:00,
2013-10-04 02:41:00,66.3,63.3,30.06,SSW,193,3.5,3.5,90,0.00,CLR,,0.00,WeatherDisplay:10.37,2013-10-04 06:41:00,
2013-10-04 02:46:00,66.3,63.3,30.05,SSW,193,0.0,0.0,90,0.00,CLR,,0.00,WeatherDisplay:10.37,2013-10-04 06:46:00,
2013-10-04 02:51:00,66.2,63.2,30.06,SSW,193,0.0,0.0,90,0.00,CLR,,0.00,WeatherDisplay:10.37,2013-10-04 06:51:00,
2013-10-04 02:56:00,66.1,63.1,30.06,SSW,193,1.0,1.0,90,0.00,CLR,,0.00,WeatherDisplay:10.37,2013-10-04 06:56:00,
2013-10-04 03:01:00,66.0,63.0,30.06,SSW,193,0.0,0.0,90,0.00,CLR,,0.00,WeatherDisplay:10.37,2013-10-04 07:01:00,
2013-10-04 03:06:00,66.0,63.0,30.06,SSW,193,0.0,0.0,90,0.00,CLR,,0.00,WeatherDisplay:10.37,2013-10-04 07:06:00,
2013-10-04 03:11:00,65.9,62.9,30.05,SSW,193,0.0,0.0,90,0.00,CLR,,0.00,WeatherDisplay:10.37,2013-10-04 07:11:00,
2013-10-04 03:16:00,65.8,62.8,30.05,SSW,193,0.0,0.0,90,0.00,CLR,,0.00,WeatherDisplay:10.37,2013-10-04 07:16:00,
2013-10-04 03:22:00,65.7,62.7,30.05,SSW,193,0.0,0.0,90,0.00,CLR,,0.00,WeatherDisplay:10.37,2013-10-04 07:22:00,
2013-10-04 03:27:00,65.7,62.7,30.05,SSW,193,2.0,2.0,90,0.00,CLR,,0.00,WeatherDisplay:10.37,2013-10-04 07:27:00,
2013-10-04 03:32:00,65.7,62.7,30.05,SSW,193,0.0,0.0,90,0.00,CLR,,0.00,WeatherDisplay:10.37,2013-10-04 07:32:00,
2013-10-04 03:37:00,65.7,62.7,30.05,SSW,193,1.2,1.2,90,0.00,CLR,,0.00,WeatherDisplay:10.37,2013-10-04 07:37:00,
2013-10-04 03:42:00,65.7,62.7,30.05,SSW,193,1.0,0.0,90,0.00,CLR,,0.00,WeatherDisplay:10.37,2013-10-04 07:42:00,
2013-10-04 03:47:00,65.7,62.7,30.05,SSW,193,1.2,1.2,90,0.00,CLR,,0.00,WeatherDisplay:10.37,2013-10-04 07:47:00,
2013-10-04 03:52:00,65.7,62.7,30.05,SSW,193,0.0,0.0,90,0.00,CLR,,0.00,WeatherDisplay:10.37,2013-10-04 07:52:00,
2013-10-04 03:57:00,65.6,62.6,30.06,SSW,193,0.0,0.0,90,0.00,CLR,,0.00,WeatherDisplay:10.37,2013-10-04 07:57:00,
2013-10-04 04:02:00,65.6,62.6,30.06,SSW,193,0.0,0.0,90,0.00,CLR,,0.00,WeatherDisplay:10.37,2013-10-04 08:02:00,
2013-10-04 04:07:00,65.5,62.5,30.06,SSW,193,0.0,0.0,90,0.00,CLR,,0.00,WeatherDisplay:10.37,2013-10-04 08:07:00,
2013-10-04 04:12:00,65.3,62.0,30.06,SSW,193,0.0,0.0,89,0.00,CLR,,0.00,WeatherDisplay:10.37,2013-10-04 08:12:00,
2013-10-04 04:17:00,65.2,61.9,30.06,SSW,193,1.2,1.2,89,0.00,CLR,,0.00,WeatherDisplay:10.37,2013-10-04 08:17:00,
2013-10-04 04:22:00,65.1,62.1,30.06,SSW,193,0.0,0.0,90,0.00,CLR,,0.00,WeatherDisplay:10.37,2013-10-04 08:22:00,
2013-10-04 04:27:00,65.0,62.0,30.06,SSW,193,0.0,0.0,90,0.00,CLR,,0.00,WeatherDisplay:10.37,2013-10-04 08:27:00,
2013-10-04 04:32:00,64.9,61.9,30.06,SSW,193,0.0,0.0,90,0.00,CLR,,0.00,WeatherDisplay:10.37,2013-10-04 08:32:00,
2013-10-04 04:37:00,64.9,61.9,30.06,SSW,193,0.0,0.0,90,0.00,CLR,,0.00,WeatherDisplay:10.37,2013-10-04 08:37:00,
2013-10-04 04:42:00,64.9,61.9,30.06,SSW,193,0.0,0.0,90,0.00,CLR,,0.00,WeatherDisplay:10.37,2013-10-04 08:42:00,
2013-10-04 04:47:00,64.9,61.9,30.06,SSW,193,0.0,0.0,90,0.00,CLR,,0.00,WeatherDisplay:10.37,2013-10-04 08:47:00,
2013-10-04 04:52:00,65.0,62.0,30.06,SSW,193,0.0,0.0,90,0.00,CLR,,0.00,WeatherDisplay:10.37,2013-10-04 08:52:00,
2013-10-04 04:57:00,65.1,62.1,30.07,SSW,193,0.0,0.0,90,0.00,CLR,,0.00,WeatherDisplay:10.37,2013-10-04 08:57:00,
2013-10-04 05:02:00,65.2,62.2,30.07,SSW,193,1.0,0.0,90,0.00,CLR,,0.00,WeatherDisplay:10.37,2013-10-04 09:02:00,
2013-10-04 05:07:00,65.3,62.3,30.07,SSW,193,0.0,0.0,90,0.00,CLR,,0.00,WeatherDisplay:10.37,2013-10-04 09:07:00,
2013-10-04 05:12:00,65.2,62.2,30.07,SSW,193,0.0,0.0,90,0.00,CLR,,0.00,WeatherDisplay:10.37,2013-10-04 09:12:00,
2013-10-04 05:17:00,65.2,62.2,30.07,SSW,193,0.0,0.0,90,0.00,CLR,,0.00,WeatherDisplay:10.37,2013-10-04 09:17:00,
2013-10-04 05:22:00,65.1,62.1,30.07,SSW,193,0.0,0.0,90,0.00,CLR,,0.00,WeatherDisplay:10.37,2013-10-04 09:22:00,
2013-10-04 05:27:00,65.0,62.0,30.07,SSW,193,0.0,0.0,90,0.00,CLR,,0.00,WeatherDisplay:10.37,2013-10-04 09:27:00,
2013-10-04 05:32:00,64.9,61.6,30.07,SSW,193,1.2,0.0,89,0.00,CLR,,0.00,WeatherDisplay:10.37,2013-10-04 09:32:00,
2013-10-04 05:37:00,64.8,61.5,30.07,SSW,193,0.0,0.0,89,0.00,CLR,,0.00,WeatherDisplay:10.37,2013-10-04 09:37:00,
2013-10-04 05:42:00,64.7,61.4,30.07,SSW,193,0.0,0.0,89,0.00,CLR,,0.00,WeatherDisplay:10.37,2013-10-04 09:42:00,
2013-10-04 05:47:00,64.6,61.3,30.07,SSW,193,0.0,0.0,89,0.00,CLR,,0.00,WeatherDisplay:10.37,2013-10-04 09:47:00,
2013-10-04 05:52:00,64.6,61.6,30.07,SSW,193,0.0,0.0,90,0.00,CLR,,0.00,WeatherDisplay:10.37,2013-10-04 09:52:00,
2013-10-04 05:57:00,64.5,61.5,30.07,SSW,193,0.0,0.0,90,0.00,CLR,,0.00,WeatherDisplay:10.37,2013-10-04 09:57:00,
2013-10-04 06:02:00,64.5,61.5,30.07,SSW,193,1.2,1.2,90,0.00,CLR,,0.00,WeatherDisplay:10.37,2013-10-04 10:02:00,
2013-10-04 06:07:00,64.6,61.6,30.07,SSW,193,0.0,0.0,90,0.00,CLR,,0.00,WeatherDisplay:10.37,2013-10-04 10:07:00,
2013-10-04 06:12:00,64.6,61.6,30.07,SSW,193,0.0,0.0,90,0.00,CLR,,0.00,WeatherDisplay:10.37,2013-10-04 10:12:00,
2013-10-04 06:17:00,64.5,61.5,30.08,SSW,193,0.0,0.0,90,0.00,CLR,,0.00,WeatherDisplay:10.37,2013-10-04 10:17:00,
2013-10-04 06:22:00,64.5,61.5,30.08,SSW,193,0.0,0.0,90,0.00,CLR,,0.00,WeatherDisplay:10.37,2013-10-04 10:22:00,
2013-10-04 06:27:00,64.4,61.4,30.08,SSW,193,0.0,0.0,90,0.00,CLR,,0.00,WeatherDisplay:10.37,2013-10-04 10:27:00,
2013-10-04 06:32:00,64.4,61.4,30.08,SSW,193,0.0,0.0,90,0.00,CLR,,0.00,WeatherDisplay:10.37,2013-10-04 10:32:00,
2013-10-04 06:37:00,64.3,61.3,30.08,SSW,193,0.0,0.0,90,0.00,CLR,,0.00,WeatherDisplay:10.37,2013-10-04 10:37:00,
2013-10-04 06:42:00,64.3,61.3,30.08,SSW,193,0.0,0.0,90,0.00,CLR,,0.00,WeatherDisplay:10.37,2013-10-04 10:42:00,
2013-10-04 06:47:00,64.3,61.3,30.08,SSW,193,2.0,2.0,90,0.00,CLR,,0.00,WeatherDisplay:10.37,2013-10-04 10:47:00,
2013-10-04 06:52:00,64.4,61.4,30.08,SSW,193,2.3,2.3,90,0.00,CLR,,0.00,WeatherDisplay:10.37,2013-10-04 10:52:00,
2013-10-04 06:57:00,64.4,61.4,30.08,SSW,193,0.0,0.0,90,0.00,CLR,,0.00,WeatherDisplay:10.37,2013-10-04 10:57:00,
2013-10-04 07:02:00,64.4,61.4,30.08,SSW,193,3.0,3.0,90,0.00,CLR,,0.00,WeatherDisplay:10.37,2013-10-04 11:02:00,
2013-10-04 07:07:00,64.4,61.4,30.09,SSW,193,0.0,0.0,90,0.00,CLR,,0.00,WeatherDisplay:10.37,2013-10-04 11:07:00,
2013-10-04 07:12:00,64.5,61.5,30.09,SSW,193,0.0,0.0,90,0.00,CLR,,0.00,WeatherDisplay:10.37,2013-10-04 11:12:00,
2013-10-04 07:17:00,64.5,61.5,30.09,SSW,193,0.0,0.0,90,0.00,CLR,,0.00,WeatherDisplay:10.37,2013-10-04 11:17:00,
2013-10-04 07:22:00,64.5,61.2,30.09,SSW,193,0.0,0.0,89,0.00,CLR,,0.00,WeatherDisplay:10.37,2013-10-04 11:22:00,
2013-10-04 07:27:00,64.5,61.2,30.09,SSW,193,0.0,0.0,89,0.00,CLR,,0.00,WeatherDisplay:10.37,2013-10-04 11:27:00,
2013-10-04 07:32:00,64.4,61.1,30.10,SSW,193,0.0,0.0,89,0.00,CLR,,0.00,WeatherDisplay:10.37,2013-10-04 11:32:00,
2013-10-04 07:37:00,64.4,61.1,30.10,SSW,193,0.0,0.0,89,0.00,CLR,,0.00,WeatherDisplay:10.37,2013-10-04 11:37:00,
2013-10-04 07:42:00,64.3,61.0,30.10,SSW,193,0.0,0.0,89,0.00,CLR,,0.00,WeatherDisplay:10.37,2013-10-04 11:42:00,
2013-10-04 07:47:00,64.3,61.0,30.10,SSW,193,0.0,0.0,89,0.00,CLR,,0.00,WeatherDisplay:10.37,2013-10-04 11:47:00,
2013-10-04 07:52:00,64.4,61.1,30.10,SSW,193,1.2,1.2,89,0.00,CLR,,0.00,WeatherDisplay:10.37,2013-10-04 11:52:00,
2013-10-04 07:57:00,64.5,61.2,30.10,SSW,193,2.3,2.3,89,0.00,CLR,,0.00,WeatherDisplay:10.37,2013-10-04 11:57:00,
2013-10-04 08:02:00,64.6,61.3,30.10,SSW,193,0.0,0.0,89,0.00,CLR,,0.00,WeatherDisplay:10.37,2013-10-04 12:02:00,
2013-10-04 08:07:00,64.6,61.3,30.10,SSW,193,0.0,0.0,89,0.00,CLR,,0.00,WeatherDisplay:10.37,2013-10-04 12:07:00,
2013-10-04 08:12:00,64.7,61.4,30.10,SSW,193,0.0,0.0,89,0.00,CLR,,0.00,WeatherDisplay:10.37,2013-10-04 12:12:00,
2013-10-04 08:17:00,64.8,61.5,30.11,SSW,193,0.0,0.0,89,0.00,CLR,,0.00,WeatherDisplay:10.37,2013-10-04 12:17:00,
2013-10-04 08:22:00,64.9,61.6,30.11,SSW,193,0.0,0.0,89,0.00,CLR,,0.00,WeatherDisplay:10.37,2013-10-04 12:22:00,
2013-10-04 08:27:00,65.0,61.7,30.11,SSW,193,0.0,0.0,89,0.00,CLR,,0.00,WeatherDisplay:10.37,2013-10-04 12:27:00,
2013-10-04 08:32:00,65.2,61.9,30.11,SSW,193,0.0,0.0,89,0.00,CLR,,0.00,WeatherDisplay:10.37,2013-10-04 12:32:00,
2013-10-04 08:37:00,65.6,62.3,30.11,SSW,193,0.0,0.0,89,0.00,CLR,,0.00,WeatherDisplay:10.37,2013-10-04 12:37:00,
2013-10-04 08:42:00,65.8,62.5,30.11,SSW,193,0.0,0.0,89,0.00,CLR,,0.00,WeatherDisplay:10.37,2013-10-04 12:42:00,
2013-10-04 08:47:00,66.0,62.3,30.11,SSW,193,0.0,0.0,88,0.00,CLR,,0.00,WeatherDisplay:10.37,2013-10-04 12:47:00,
2013-10-04 08:52:00,66.2,62.5,30.11,SSW,193,0.0,0.0,88,0.00,CLR,,0.00,WeatherDisplay:10.37,2013-10-04 12:52:00,
2013-10-04 08:57:00,66.5,62.8,30.12,SSW,193,2.3,2.3,88,0.00,CLR,,0.00,WeatherDisplay:10.37,2013-10-04 12:57:00,
2013-10-04 09:02:00,67.0,63.0,30.12,SSW,193,1.2,1.2,87,0.00,CLR,,0.00,WeatherDisplay:10.37,2013-10-04 13:02:00,
2013-10-04 09:07:00,67.4,63.4,30.12,SSW,193,2.3,2.3,87,0.00,CLR,,0.00,WeatherDisplay:10.37,2013-10-04 13:07:00,
2013-10-04 09:12:00,67.8,63.5,30.12,SSW,193,5.0,5.0,86,0.00,CLR,,0.00,WeatherDisplay:10.37,2013-10-04 13:12:00,
2013-10-04 09:17:00,68.2,63.5,30.12,SSW,193,1.0,0.0,85,0.00,CLR,,0.00,WeatherDisplay:10.37,2013-10-04 13:17:00,
2013-10-04 09:22:00,68.6,63.6,30.12,SSW,195,4.6,4.6,84,0.00,CLR,,0.00,WeatherDisplay:10.37,2013-10-04 13:22:00,
2013-10-04 09:27:00,68.8,63.8,30.12,SSW,195,5.8,5.8,84,0.00,CLR,,0.00,WeatherDisplay:10.37,2013-10-04 13:27:00,
2013-10-04 09:32:00,69.1,64.1,30.12,SSW,195,4.6,4.6,84,0.00,CLR,,0.00,WeatherDisplay:10.37,2013-10-04 13:32:00,
2013-10-04 09:37:00,69.4,64.0,30.12,SSW,195,1.2,1.2,83,0.00,CLR,,0.00,WeatherDisplay:10.37,2013-10-04 13:37:00,
2013-10-04 09:42:00,69.7,64.3,30.12,SSW,195,3.5,3.5,83,0.00,CLR,,0.00,WeatherDisplay:10.37,2013-10-04 13:42:00,
2013-10-04 09:47:00,70.0,64.2,30.12,SSW,201,6.0,6.0,82,0.00,CLR,,0.00,WeatherDisplay:10.37,2013-10-04 13:47:00,
2013-10-04 09:52:00,70.4,64.6,30.12,SSW,201,0.0,0.0,82,0.00,CLR,,0.00,WeatherDisplay:10.37,2013-10-04 13:52:00,
2013-10-04 09:57:00,70.8,65.0,30.12,SSW,201,3.5,3.5,82,0.00,CLR,,0.00,WeatherDisplay:10.37,2013-10-04 13:57:00,
2013-10-04 10:02:00,71.3,64.8,30.12,SSW,200,3.5,3.5,80,0.00,CLR,,0.00,WeatherDisplay:10.37,2013-10-04 14:02:00,
2013-10-04 10:07:00,71.5,64.6,30.12,SSW,207,5.0,5.0,79,0.00,CLR,,0.00,WeatherDisplay:10.37,2013-10-04 14:07:00,
2013-10-04 10:12:00,71.6,65.1,30.12,SSW,207,3.5,3.5,80,0.00,CLR,,0.00,WeatherDisplay:10.37,2013-10-04 14:12:00,
2013-10-04 10:17:00,71.6,64.7,30.12,SSW,207,0.0,0.0,79,0.00,CLR,,0.00,WeatherDisplay:10.37,2013-10-04 14:17:00,
2013-10-04 10:22:00,71.7,65.2,30.12,SSW,207,0.0,0.0,80,0.00,CLR,,0.00,WeatherDisplay:10.37,2013-10-04 14:22:00,
2013-10-04 10:27:00,71.8,64.9,30.12,SSW,207,4.0,4.0,79,0.00,CLR,,0.00,WeatherDisplay:10.37,2013-10-04 14:27:00,
2013-10-04 10:32:00,72.1,65.6,30.12,SSW,207,1.2,1.2,80,0.00,CLR,,0.00,WeatherDisplay:10.37,2013-10-04 14:32:00,
2013-10-04 10:37:00,72.5,65.2,30.12,SSW,207,4.6,4.6,78,0.00,CLR,,0.00,WeatherDisplay:10.37,2013-10-04 14:37:00,
2013-10-04 10:42:00,73.1,65.5,30.12,SSW,205,2.3,2.3,77,0.00,CLR,,0.00,WeatherDisplay:10.37,2013-10-04 14:42:00,
2013-10-04 10:47:00,73.4,65.7,30.12,SSW,204,4.0,4.0,77,0.00,CLR,,0.00,WeatherDisplay:10.37,2013-10-04 14:47:00,
2013-10-04 10:52:00,73.7,65.7,30.12,SSW,207,5.0,5.0,76,0.00,CLR,,0.00,WeatherDisplay:10.37,2013-10-04 14:52:00,
2013-10-04 10:57:00,73.8,65.4,30.11,SW,225,6.9,6.9,75,0.00,CLR,,0.00,WeatherDisplay:10.37,2013-10-04 14:57:00,
2013-10-04 11:02:00,74.0,66.0,30.11,SW,225,3.5,3.5,76,0.00,FEW,,0.00,WeatherDisplay:10.37,2013-10-04 15:02:00,
2013-10-04 11:07:00,74.3,66.2,30.11,SW,229,1.2,1.2,76,0.00,FEW,,0.00,WeatherDisplay:10.37,2013-10-04 15:07:00,
2013-10-04 11:12:00,74.2,65.4,30.11,SW,234,8.1,8.1,74,0.00,FEW,,0.00,WeatherDisplay:10.37,2013-10-04 15:12:00,
2013-10-04 11:17:00,74.2,65.8,30.11,WSW,239,5.0,5.0,75,0.00,FEW,,0.00,WeatherDisplay:10.37,2013-10-04 15:17:00,
2013-10-04 11:22:00,74.6,66.5,30.11,WSW,239,3.5,3.5,76,0.00,FEW,,0.00,WeatherDisplay:10.37,2013-10-04 15:22:00,
2013-10-04 11:27:00,74.9,66.4,30.11,WSW,237,3.5,3.5,75,0.00,FEW,,0.00,WeatherDisplay:10.37,2013-10-04 15:27:00,
2013-10-04 11:32:00,75.3,66.4,30.11,WSW,237,6.0,6.0,74,0.00,FEW,,0.00,WeatherDisplay:10.37,2013-10-04 15:32:00,
2013-10-04 11:37:00,75.5,66.6,30.11,WSW,245,5.0,5.0,74,0.00,FEW,,0.00,WeatherDisplay:10.37,2013-10-04 15:37:00,
2013-10-04 11:42:00,75.6,66.7,30.11,WSW,242,6.9,6.9,74,0.00,FEW,,0.00,WeatherDisplay:10.37,2013-10-04 15:42:00,
2013-10-04 11:47:00,75.7,66.8,30.11,WSW,241,7.0,7.0,74,0.00,FEW,,0.00,WeatherDisplay:10.37,2013-10-04 15:47:00,
2013-10-04 11:52:00,75.6,66.3,30.12,SW,236,7.0,7.0,73,0.00,FEW,,0.00,WeatherDisplay:10.37,2013-10-04 15:52:00,
2013-10-04 11:57:00,75.2,66.7,30.11,SW,236,3.5,3.5,75,0.00,FEW,,0.00,WeatherDisplay:10.37,2013-10-04 15:57:00,
2013-10-04 12:02:00,75.9,66.6,30.12,WSW,243,7.0,7.0,73,0.00,FEW,,0.00,WeatherDisplay:10.37,2013-10-04 16:02:00,
2013-10-04 12:07:00,76.2,66.9,30.11,WSW,245,3.0,0.0,73,0.00,FEW,,0.00,WeatherDisplay:10.37,2013-10-04 16:07:00,
2013-10-04 12:12:00,76.2,67.3,30.11,WSW,243,7.0,7.0,74,0.00,FEW,,0.00,WeatherDisplay:10.37,2013-10-04 16:12:00,
2013-10-04 12:17:00,76.2,66.9,30.11,WSW,242,4.0,4.0,73,0.00,FEW,,0.00,WeatherDisplay:10.37,2013-10-04 16:17:00,
2013-10-04 12:22:00,76.7,67.8,30.11,WSW,243,0.0,0.0,74,0.00,FEW,,0.00,WeatherDisplay:10.37,2013-10-04 16:22:00,
2013-10-04 12:27:00,77.6,67.9,30.11,WSW,241,4.0,4.0,72,0.00,FEW,,0.00,WeatherDisplay:10.37,2013-10-04 16:27:00,
2013-10-04 12:32:00,78.5,67.9,30.11,SW,234,2.3,2.3,70,0.00,FEW,,0.00,WeatherDisplay:10.37,2013-10-04 16:32:00,
2013-10-04 12:37:00,78.8,68.2,30.11,SW,234,2.3,2.3,70,0.00,FEW,,0.00,WeatherDisplay:10.37,2013-10-04 16:37:00,
2013-10-04 12:42:00,79.3,68.2,30.10,SW,235,1.0,0.0,69,0.00,FEW,,0.00,WeatherDisplay:10.37,2013-10-04 16:42:00,
2013-10-04 12:47:00,79.3,68.2,30.10,SW,235,2.3,0.0,69,0.00,FEW,,0.00,WeatherDisplay:10.37,2013-10-04 16:47:00,
2013-10-04 12:52:00,79.3,67.8,30.11,SW,234,2.0,2.0,68,0.00,FEW,,0.00,WeatherDisplay:10.37,2013-10-04 16:52:00,
2013-10-04 12:57:00,79.3,67.4,30.11,SW,234,2.3,2.3,67,0.00,FEW,,0.00,WeatherDisplay:10.37,2013-10-04 16:57:00,
2013-10-04 13:02:00,79.2,68.1,30.10,SW,235,4.0,4.0,69,0.00,CLR,,0.00,WeatherDisplay:10.37,2013-10-04 17:02:00,
2013-10-04 13:07:00,79.4,67.5,30.11,SW,233,8.0,8.0,67,0.00,CLR,,0.00,WeatherDisplay:10.37,2013-10-04 17:07:00,
2013-10-04 13:12:00,79.2,67.3,30.10,SW,231,7.0,7.0,67,0.00,CLR,,0.00,WeatherDisplay:10.37,2013-10-04 17:12:00,
2013-10-04 13:17:00,78.9,67.4,30.10,SW,234,7.0,7.0,68,0.00,CLR,,0.00,WeatherDisplay:10.37,2013-10-04 17:17:00,
2013-10-04 13:22:00,79.5,67.6,30.10,SW,221,4.0,4.0,67,0.00,CLR,,0.00,WeatherDisplay:10.37,2013-10-04 17:22:00,
2013-10-04 13:27:00,80.1,67.3,30.09,WSW,247,6.0,6.0,65,0.00,CLR,,0.00,WeatherDisplay:10.37,2013-10-04 17:27:00,
2013-10-04 13:32:00,79.7,67.8,30.09,WSW,241,3.5,3.5,67,0.00,CLR,,0.00,WeatherDisplay:10.37,2013-10-04 17:32:00,
2013-10-04 13:37:00,79.3,67.4,30.09,SW,235,3.5,3.5,67,0.00,CLR,,0.00,WeatherDisplay:10.37,2013-10-04 17:37:00,
2013-10-04 14:02:00,80.0,67.6,30.08,WSW,248,1.2,1.2,66,0.00,SCT,,0.00,WeatherDisplay:10.37,2013-10-04 18:02:00,
2013-10-04 14:07:00,80.9,67.6,30.08,WSW,249,5.8,5.8,64,0.00,SCT,,0.00,WeatherDisplay:10.37,2013-10-04 18:07:00,
2013-10-04 14:12:00,81.2,67.4,30.08,WSW,249,4.0,4.0,63,0.00,SCT,,0.00,WeatherDisplay:10.37,2013-10-04 18:12:00,
2013-10-04 14:17:00,81.2,66.9,30.08,WSW,244,9.0,9.0,62,0.00,SCT,,0.00,WeatherDisplay:10.37,2013-10-04 18:17:00,
2013-10-04 14:22:00,81.0,67.2,30.07,WSW,242,5.0,5.0,63,0.00,SCT,,0.00,WeatherDisplay:10.37,2013-10-04 18:22:00,
2013-10-04 14:27:00,80.8,67.0,30.07,WSW,242,4.0,4.0,63,0.00,SCT,,0.00,WeatherDisplay:10.37,2013-10-04 18:27:00,
2013-10-04 14:32:00,82.0,67.7,30.07,WSW,237,3.5,3.5,62,0.00,SCT,,0.00,WeatherDisplay:10.37,2013-10-04 18:32:00,
2013-10-04 14:37:00,82.9,67.1,30.07,SW,236,6.0,6.0,59,0.00,SCT,,0.00,WeatherDisplay:10.37,2013-10-04 18:37:00,
2013-10-04 14:42:00,82.3,66.5,30.07,SW,234,8.0,8.0,59,0.00,SCT,,0.00,WeatherDisplay:10.37,2013-10-04 18:42:00,
2013-10-04 14:47:00,82.3,66.5,30.07,WSW,241,7.0,7.0,59,0.00,SCT,,0.00,WeatherDisplay:10.37,2013-10-04 18:47:00,
2013-10-04 14:52:00,82.5,67.2,30.07,SW,236,8.1,8.1,60,0.00,SCT,,0.00,WeatherDisplay:10.37,2013-10-04 18:52:00,
2013-10-04 14:57:00,82.9,67.1,30.06,West,259,4.0,4.0,59,0.00,SCT,,0.00,WeatherDisplay:10.37,2013-10-04 18:57:00,
2013-10-04 15:02:00,82.5,67.2,30.06,WSW,247,4.0,4.0,60,0.00,BKN,,0.00,WeatherDisplay:10.37,2013-10-04 19:02:00,
2013-10-04 15:07:00,82.9,67.1,30.06,WSW,240,3.5,3.5,59,0.00,BKN,,0.00,WeatherDisplay:10.37,2013-10-04 19:07:00,
2013-10-04 15:12:00,82.7,67.4,30.06,SW,214,4.0,4.0,60,0.00,BKN,,0.00,WeatherDisplay:10.37,2013-10-04 19:12:00,
2013-10-04 15:17:00,82.6,68.3,30.06,SW,214,1.2,1.2,62,0.00,BKN,,0.00,WeatherDisplay:10.37,2013-10-04 19:17:00,
2013-10-04 15:22:00,82.8,67.0,30.06,SW,216,4.6,4.6,59,0.00,BKN,,0.00,WeatherDisplay:10.37,2013-10-04 19:22:00,
2013-10-04 15:27:00,83.7,68.3,30.06,SW,218,7.0,7.0,60,0.00,BKN,,0.00,WeatherDisplay:10.37,2013-10-04 19:27:00,
2013-10-04 15:32:00,83.6,66.8,30.06,WSW,245,10.0,10.0,57,0.00,BKN,,0.00,WeatherDisplay:10.37,2013-10-04 19:32:00,
2013-10-04 15:37:00,83.6,66.8,30.06,SW,231,5.0,5.0,57,0.00,BKN,,0.00,WeatherDisplay:10.37,2013-10-04 19:37:00,
2013-10-04 15:42:00,83.7,66.8,30.06,SSW,201,3.5,3.5,57,0.00,BKN,,0.00,WeatherDisplay:10.37,2013-10-04 19:42:00,
2013-10-04 15:47:00,84.0,67.6,30.06,SW,221,7.0,7.0,58,0.00,BKN,,0.00,WeatherDisplay:10.37,2013-10-04 19:47:00,
2013-10-04 15:52:00,84.0,67.6,30.05,SW,226,7.0,7.0,58,0.00,BKN,,0.00,WeatherDisplay:10.37,2013-10-04 19:52:00,
2013-10-04 15:57:00,83.8,67.4,30.05,SW,226,4.0,4.0,58,0.00,BKN,,0.00,WeatherDisplay:10.37,2013-10-04 19:57:00,
2013-10-04 16:02:00,83.1,66.8,30.06,WSW,248,10.4,10.4,58,0.00,FEW,,0.00,WeatherDisplay:10.37,2013-10-04 20:02:00,
2013-10-04 16:07:00,82.8,67.0,30.05,WSW,240,8.1,8.1,59,0.00,FEW,,0.00,WeatherDisplay:10.37,2013-10-04 20:07:00,
2013-10-04 16:12:00,83.3,67.0,30.05,WSW,237,2.3,2.3,58,0.00,FEW,,0.00,WeatherDisplay:10.37,2013-10-04 20:12:00,
2013-10-04 16:17:00,83.3,67.0,30.05,WSW,240,6.0,6.0,58,0.00,FEW,,0.00,WeatherDisplay:10.37,2013-10-04 20:17:00,
2013-10-04 16:22:00,82.6,66.8,30.05,WSW,244,6.9,6.9,59,0.00,FEW,,0.00,WeatherDisplay:10.37,2013-10-04 20:22:00,
2013-10-04 16:27:00,82.7,66.9,30.05,WSW,238,4.6,4.6,59,0.00,FEW,,0.00,WeatherDisplay:10.37,2013-10-04 20:27:00,
2013-10-04 16:32:00,83.3,66.5,30.05,WSW,245,8.0,8.0,57,0.00,FEW,,0.00,WeatherDisplay:10.37,2013-10-04 20:32:00,
2013-10-04 16:37:00,83.1,66.8,30.05,SW,236,3.5,3.5,58,0.00,FEW,,0.00,WeatherDisplay:10.37,2013-10-04 20:37:00,
2013-10-04 16:42:00,83.3,67.0,30.05,SW,225,1.2,1.2,58,0.00,FEW,,0.00,WeatherDisplay:10.37,2013-10-04 20:42:00,
2013-10-04 16:47:00,84.2,67.8,30.05,SSW,192,1.2,0.0,58,0.00,FEW,,0.00,WeatherDisplay:10.37,2013-10-04 20:47:00,
2013-10-04 16:52:00,84.0,67.6,30.05,SSW,200,3.5,3.5,58,0.00,FEW,,0.00,WeatherDisplay:10.37,2013-10-04 20:52:00,
2013-10-04 16:57:00,83.4,67.1,30.05,SSW,199,5.8,5.8,58,0.00,FEW,,0.00,WeatherDisplay:10.37,2013-10-04 20:57:00,
2013-10-04 17:02:00,83.6,67.3,30.05,South,187,5.0,5.0,58,0.00,FEW,,0.00,WeatherDisplay:10.37,2013-10-04 21:02:00,
2013-10-04 17:07:00,84.2,67.3,30.04,SSW,193,6.0,6.0,57,0.00,FEW,,0.00,WeatherDisplay:10.37,2013-10-04 21:07:00,
2013-10-04 17:12:00,84.0,66.6,30.04,SSW,202,4.0,4.0,56,0.00,FEW,,0.00,WeatherDisplay:10.37,2013-10-04 21:12:00,
2013-10-04 17:17:00,83.7,66.8,30.04,SSW,202,4.0,4.0,57,0.00,FEW,,0.00,WeatherDisplay:10.37,2013-10-04 21:17:00,
2013-10-04 17:22:00,83.5,66.7,30.04,SSW,199,4.0,4.0,57,0.00,FEW,,0.00,WeatherDisplay:10.37,2013-10-04 21:22:00,
2013-10-04 17:27:00,83.6,67.3,30.04,SSW,200,0.0,0.0,58,0.00,FEW,,0.00,WeatherDisplay:10.37,2013-10-04 21:27:00,
2013-10-04 17:32:00,84.6,67.2,30.04,SSW,198,3.5,3.5,56,0.00,FEW,,0.00,WeatherDisplay:10.37,2013-10-04 21:32:00,
2013-10-04 17:37:00,84.6,67.2,30.04,South,189,8.1,8.1,56,0.00,FEW,,0.00,WeatherDisplay:10.37,2013-10-04 21:37:00,
2013-10-04 17:42:00,83.8,66.4,30.04,SSW,210,2.3,2.3,56,0.00,FEW,,0.00,WeatherDisplay:10.37,2013-10-04 21:42:00,
2013-10-04 17:47:00,83.6,66.2,30.04,SSW,213,4.0,4.0,56,0.00,FEW,,0.00,WeatherDisplay:10.37,2013-10-04 21:47:00,
2013-10-04 17:52:00,83.5,66.7,30.04,SW,216,5.8,5.8,57,0.00,FEW,,0.00,WeatherDisplay:10.37,2013-10-04 21:52:00,
2013-10-04 17:57:00,83.2,66.4,30.04,SSW,207,4.6,4.6,57,0.00,FEW,,0.00,WeatherDisplay:10.37,2013-10-04 21:57:00,
2013-10-04 18:02:00,82.8,66.0,30.04,SSW,205,4.0,4.0,57,0.00,CLR,,0.00,WeatherDisplay:10.37,2013-10-04 22:02:00,
2013-10-04 18:07:00,82.6,66.3,30.04,SSW,205,2.3,2.3,58,0.00,CLR,,0.00,WeatherDisplay:10.37,2013-10-04 22:07:00,
2013-10-04 18:12:00,82.2,66.4,30.04,SSW,205,1.2,1.2,59,0.00,CLR,,0.00,WeatherDisplay:10.37,2013-10-04 22:12:00,
2013-10-04 18:17:00,82.3,66.5,30.05,SSW,205,1.2,0.0,59,0.00,CLR,,0.00,WeatherDisplay:10.37,2013-10-04 22:17:00,
2013-10-04 18:22:00,82.3,66.5,30.04,SSW,213,1.2,1.2,59,0.00,CLR,,0.00,WeatherDisplay:10.37,2013-10-04 22:22:00,
2013-10-04 18:27:00,81.9,66.6,30.04,SSW,212,3.5,3.5,60,0.00,CLR,,0.00,WeatherDisplay:10.37,2013-10-04 22:27:00,
2013-10-04 18:32:00,81.3,66.6,30.04,SSW,212,3.0,3.0,61,0.00,CLR,,0.00,WeatherDisplay:10.37,2013-10-04 22:32:00,
2013-10-04 18:37:00,80.8,66.6,30.05,SW,229,8.1,8.1,62,0.00,CLR,,0.00,WeatherDisplay:10.37,2013-10-04 22:37:00,
2013-10-04 18:42:00,80.7,66.5,30.05,SW,229,3.5,3.5,62,0.00,CLR,,0.00,WeatherDisplay:10.37,2013-10-04 22:42:00,
2013-10-04 18:47:00,80.6,66.4,30.05,SW,229,3.5,3.5,62,0.00,CLR,,0.00,WeatherDisplay:10.37,2013-10-04 22:47:00,
2013-10-04 18:52:00,80.6,66.8,30.05,SW,230,1.2,1.2,63,0.00,CLR,,0.00,WeatherDisplay:10.37,2013-10-04 22:52:00,
2013-10-04 18:57:00,80.4,66.6,30.05,SW,224,2.0,2.0,63,0.00,CLR,,0.00,WeatherDisplay:10.37,2013-10-04 22:57:00,
2013-10-04 19:02:00,80.0,66.3,30.05,SW,224,2.0,2.0,63,0.00,FEW,,0.00,WeatherDisplay:10.37,2013-10-04 23:02:00,
2013-10-04 19:07:00,79.8,66.5,30.05,SW,224,1.2,0.0,64,0.00,FEW,,0.00,WeatherDisplay:10.37,2013-10-04 23:07:00,
2013-10-04 19:12:00,79.4,66.2,30.05,SW,222,2.3,0.0,64,0.00,FEW,,0.00,WeatherDisplay:10.37,2013-10-04 23:12:00,
2013-10-04 19:17:00,79.1,66.3,30.05,SW,223,1.2,1.2,65,0.00,FEW,,0.00,WeatherDisplay:10.37,2013-10-04 23:17:00,
2013-10-04 19:22:00,78.7,66.4,30.06,SW,223,2.3,2.3,66,0.00,FEW,,0.00,WeatherDisplay:10.37,2013-10-04 23:22:00,
2013-10-04 19:27:00,78.5,66.2,30.06,SW,223,1.2,0.0,66,0.00,FEW,,0.00,WeatherDisplay:10.37,2013-10-04 23:27:00,
2013-10-04 19:32:00,78.4,66.5,30.05,SW,222,0.0,0.0,67,0.00,FEW,,0.00,WeatherDisplay:10.37,2013-10-04 23:32:00,
2013-10-04 19:37:00,78.2,66.3,30.05,SW,222,1.0,0.0,67,0.00,FEW,,0.00,WeatherDisplay:10.37,2013-10-04 23:37:00,
2013-10-04 19:42:00,77.8,66.4,30.05,SW,223,0.0,0.0,68,0.00,FEW,,0.00,WeatherDisplay:10.37,2013-10-04 23:42:00,
2013-10-04 19:47:00,77.6,66.2,30.05,SW,223,0.0,0.0,68,0.00,FEW,,0.00,WeatherDisplay:10.37,2013-10-04 23:47:00,
2013-10-04 19:52:00,77.3,65.9,30.06,SW,223,1.2,1.2,68,0.00,FEW,,0.00,WeatherDisplay:10.37,2013-10-04 23:52:00,
2013-10-04 19:57:00,77.1,66.1,30.06,SW,222,0.0,0.0,69,0.00,FEW,,0.00,WeatherDisplay:10.37,2013-10-04 23:57:00,
2013-10-04 20:02:00,76.9,66.4,30.06,SW,223,0.0,0.0,70,0.00,CLR,,0.00,WeatherDisplay:10.37,2013-10-05 00:02:00,
2013-10-04 20:07:00,76.8,66.3,30.06,SW,223,0.0,0.0,70,0.00,CLR,,0.00,WeatherDisplay:10.37,2013-10-05 00:07:00,
2013-10-04 20:12:00,76.6,66.1,30.05,SW,223,0.0,0.0,70,0.00,CLR,,0.00,WeatherDisplay:10.37,2013-10-05 00:12:00,
2013-10-04 20:17:00,76.5,66.4,30.06,SW,222,1.0,0.0,71,0.00,CLR,,0.00,WeatherDisplay:10.37,2013-10-05 00:17:00,
2013-10-04 20:22:00,76.3,66.2,30.06,SW,222,0.0,0.0,71,0.00,CLR,,0.00,WeatherDisplay:10.37,2013-10-05 00:22:00,
2013-10-04 20:27:00,76.2,66.1,30.06,SW,223,3.5,3.5,71,0.00,CLR,,0.00,WeatherDisplay:10.37,2013-10-05 00:27:00,
2013-10-04 20:32:00,76.2,66.1,30.06,SW,223,0.0,0.0,71,0.00,CLR,,0.00,WeatherDisplay:10.37,2013-10-05 00:32:00,
2013-10-04 20:37:00,76.1,66.4,30.06,SW,223,1.2,1.2,72,0.00,CLR,,0.00,WeatherDisplay:10.37,2013-10-05 00:37:00,
2013-10-04 20:42:00,76.0,66.3,30.06,SW,222,1.0,0.0,72,0.00,CLR,,0.00,WeatherDisplay:10.37,2013-10-05 00:42:00,
2013-10-04 20:47:00,75.9,66.2,30.07,SW,222,1.2,1.2,72,0.00,CLR,,0.00,WeatherDisplay:10.37,2013-10-05 00:47:00,
2013-10-04 20:52:00,75.8,66.1,30.06,SW,222,3.5,3.5,72,0.00,CLR,,0.00,WeatherDisplay:10.37,2013-10-05 00:52:00,
2013-10-04 20:57:00,75.5,66.2,30.06,SW,222,0.0,0.0,73,0.00,CLR,,0.00,WeatherDisplay:10.37,2013-10-05 00:57:00,
2013-10-04 21:02:00,75.3,66.0,30.07,SW,222,0.0,0.0,73,0.00,FEW,,0.00,WeatherDisplay:10.37,2013-10-05 01:02:00,
2013-10-04 21:07:00,75.1,66.2,30.07,SW,222,3.5,3.5,74,0.00,FEW,,0.00,WeatherDisplay:10.37,2013-10-05 01:07:00,
2013-10-04 21:12:00,75.0,66.1,30.07,SSW,211,3.5,3.5,74,0.00,FEW,,0.00,WeatherDisplay:10.37,2013-10-05 01:12:00,
2013-10-04 21:17:00,74.9,66.1,30.07,SSW,212,4.6,4.6,74,0.00,FEW,,0.00,WeatherDisplay:10.37,2013-10-05 01:17:00,
2013-10-04 21:22:00,74.8,66.0,30.07,SSW,212,2.0,2.0,74,0.00,FEW,,0.00,WeatherDisplay:10.37,2013-10-05 01:22:00,
2013-10-04 21:27:00,74.7,65.9,30.07,SSW,212,3.0,3.0,74,0.00,FEW,,0.00,WeatherDisplay:10.37,2013-10-05 01:27:00,
2013-10-04 21:32:00,74.6,65.8,30.07,SSW,212,3.5,3.5,74,0.00,FEW,,0.00,WeatherDisplay:10.37,2013-10-05 01:32:00,
2013-10-04 21:37:00,74.5,65.7,30.07,SSW,212,3.5,3.5,74,0.00,FEW,,0.00,WeatherDisplay:10.37,2013-10-05 01:37:00,
2013-10-04 21:42:00,74.4,66.0,30.07,SSW,212,2.3,2.3,75,0.00,FEW,,0.00,WeatherDisplay:10.37,2013-10-05 01:42:00,
2013-10-04 21:47:00,74.3,65.9,30.07,SSW,212,3.5,3.5,75,0.00,FEW,,0.00,WeatherDisplay:10.37,2013-10-05 01:47:00,
2013-10-04 21:52:00,74.4,65.6,30.07,SSW,212,3.5,3.5,74,0.00,FEW,,0.00,WeatherDisplay:10.37,2013-10-05 01:52:00,
2013-10-04 21:57:00,74.4,65.6,30.07,SSW,212,4.0,4.0,74,0.00,FEW,,0.00,WeatherDisplay:10.37,2013-10-05 01:57:00,
2013-10-04 22:02:00,74.5,65.7,30.07,SSW,212,3.5,3.5,74,0.00,FEW,,0.00,WeatherDisplay:10.37,2013-10-05 02:02:00,
2013-10-04 22:07:00,74.5,65.7,30.07,SSW,212,1.2,0.0,74,0.00,FEW,,0.00,WeatherDisplay:10.37,2013-10-05 02:07:00,
2013-10-04 22:12:00,74.6,65.8,30.07,SSW,207,3.5,3.5,74,0.00,FEW,,0.00,WeatherDisplay:10.37,2013-10-05 02:12:00,
2013-10-04 22:17:00,74.6,65.8,30.07,SSW,207,3.5,3.5,74,0.00,FEW,,0.00,WeatherDisplay:10.37,2013-10-05 02:17:00,
2013-10-04 22:22:00,74.5,65.7,30.07,SSW,207,4.0,4.0,74,0.00,FEW,,0.00,WeatherDisplay:10.37,2013-10-05 02:22:00,
2013-10-04 22:27:00,74.5,65.7,30.07,SSW,207,3.5,3.5,74,0.00,FEW,,0.00,WeatherDisplay:10.37,2013-10-05 02:27:00,
2013-10-04 22:32:00,74.4,66.0,30.07,SSW,208,1.2,1.2,75,0.00,FEW,,0.00,WeatherDisplay:10.37,2013-10-05 02:32:00,
2013-10-04 22:37:00,74.4,66.0,30.07,SSW,208,2.3,2.3,75,0.00,FEW,,0.00,WeatherDisplay:10.37,2013-10-05 02:37:00,
2013-10-04 22:42:00,74.4,66.0,30.07,SSW,209,5.0,5.0,75,0.00,FEW,,0.00,WeatherDisplay:10.37,2013-10-05 02:42:00,
2013-10-04 22:47:00,74.4,66.0,30.07,SSW,209,4.0,4.0,75,0.00,FEW,,0.00,WeatherDisplay:10.37,2013-10-05 02:47:00,
2013-10-04 22:52:00,74.4,66.0,30.07,SSW,209,5.0,5.0,75,0.00,FEW,,0.00,WeatherDisplay:10.37,2013-10-05 02:52:00,
2013-10-04 22:57:00,74.4,66.0,30.07,SSW,210,5.0,5.0,75,0.00,FEW,,0.00,WeatherDisplay:10.37,2013-10-05 02:57:00,
2013-10-04 23:02:00,74.3,65.9,30.07,SSW,209,5.0,5.0,75,0.00,FEW,,0.00,WeatherDisplay:10.37,2013-10-05 03:02:00,
2013-10-04 23:07:00,74.3,65.9,30.07,SSW,207,2.3,2.3,75,0.00,FEW,,0.00,WeatherDisplay:10.37,2013-10-05 03:07:00,
2013-10-04 23:12:00,74.2,66.1,30.07,SSW,207,3.5,3.5,76,0.00,FEW,,0.00,WeatherDisplay:10.37,2013-10-05 03:12:00,
2013-10-04 23:17:00,74.2,66.1,30.07,SW,223,5.0,5.0,76,0.00,FEW,,0.00,WeatherDisplay:10.37,2013-10-05 03:17:00,
2013-10-04 23:22:00,74.1,66.0,30.07,SW,222,5.0,5.0,76,0.00,FEW,,0.00,WeatherDisplay:10.37,2013-10-05 03:22:00,
2013-10-04 23:27:00,74.1,66.0,30.07,SW,222,4.0,4.0,76,0.00,FEW,,0.00,WeatherDisplay:10.37,2013-10-05 03:27:00,
2013-10-04 23:32:00,74.0,66.0,30.07,SW,222,5.8,5.8,76,0.00,FEW,,0.00,WeatherDisplay:10.37,2013-10-05 03:32:00,
2013-10-04 23:37:00,74.0,66.0,30.06,SW,222,3.5,3.5,76,0.00,FEW,,0.00,WeatherDisplay:10.37,2013-10-05 03:37:00,
2013-10-04 23:42:00,73.9,65.9,30.06,SW,228,9.2,9.2,76,0.00,FEW,,0.00,WeatherDisplay:10.37,2013-10-05 03:42:00,
2013-10-04 23:47:00,74.0,66.0,30.06,SW,228,5.0,5.0,76,0.00,FEW,,0.00,WeatherDisplay:10.37,2013-10-05 03:47:00,
2013-10-04 23:52:00,74.0,66.0,30.07,SW,228,6.0,6.0,76,0.00,FEW,,0.00,WeatherDisplay:10.37,2013-10-05 03:52:00,
2013-10-04 23:57:00,74.0,66.0,30.06,SW,232,6.0,6.0,76,0.00,FEW,,0.00,WeatherDisplay:10.37,2013-10-05 03:57:00,